When you browse on this site, cookies collect data to enhance your experience and personalize the content and advertising you see.
Visit our Privacy Policy to learn more. By continuing to use the site, you agree to this use of cookies and data.
  • In United Kingdom
  • List of Countries
  • For 7 days
  • Water Temperature
  • Satellite Maps
  • Weather Map
  • Weather Widgets
  • user-avatar
    Login

    Hourly Weather Pekhy

    Today, 25 June, Tuesday

    Time Temperature Precipitation Wind Pressure Humidity
    00:00 +18°C° 0 mm 3 mps 754 mmHg 90%
    01:00 +17°C° 0 mm 3 mps 754 mmHg 92%
    02:00 +17°C° 0 mm 2 mps 755 mmHg 94%
    03:00 +17°C° 0 mm 2 mps 755 mmHg 93%
    04:00 +17°C° 0 mm 3 mps 755 mmHg 93%
    05:00 +17°C° 0 mm 3 mps 755 mmHg 93%
    06:00 +19°C° 0 mm 3 mps 755 mmHg 87%
    07:00 +20°C° 0 mm 3 mps 755 mmHg 81%
    08:00 +22°C° 0 mm 4 mps 756 mmHg 76%
    09:00 +23°C° 0 mm 4 mps 756 mmHg 71%
    10:00 +25°C° 0 mm 4 mps 756 mmHg 65%
    11:00 +26°C° 0 mm 4 mps 756 mmHg 59%
    12:00 +26°C° 0 mm 4 mps 756 mmHg 58%
    13:00 +27°C° 0 mm 3 mps 756 mmHg 57%
    14:00 +27°C° 0 mm 3 mps 756 mmHg 56%
    15:00 +27°C° 0 mm 3 mps 756 mmHg 57%
    16:00 +27°C° 0 mm 3 mps 755 mmHg 59%
    17:00 +27°C° 0 mm 3 mps 755 mmHg 61%
    18:00 +26°C° 0 mm 3 mps 755 mmHg 67%
    19:00 +24°C° 0 mm 2 mps 755 mmHg 73%
    20:00 +23°C° 0 mm 2 mps 755 mmHg 78%
    21:00 +21°C° 0 mm 2 mps 755 mmHg 81%
    22:00 +19°C° 0 mm 2 mps 755 mmHg 83%
    23:00 +19°C° 0 mm 1 mps 755 mmHg 86%

    Tomorrow, 26 June, Wednesday

    Time Temperature Precipitation Wind Pressure Humidity
    00:00 +19°C° 0 mm 1 mps 755 mmHg 87%
    01:00 +17°C° 0 mm 2 mps 755 mmHg 88%
    02:00 +17°C° 0 mm 2 mps 756 mmHg 89%
    03:00 +17°C° 0 mm 2 mps 755 mmHg 89%
    04:00 +17°C° 0 mm 2 mps 754 mmHg 90%
    05:00 +17°C° 0 mm 2 mps 754 mmHg 90%
    06:00 +19°C° 0 mm 2 mps 754 mmHg 87%
    07:00 +20°C° 0 mm 3 mps 754 mmHg 83%
    08:00 +22°C° 0 mm 3 mps 754 mmHg 79%
    09:00 +25°C° 0 mm 3 mps 754 mmHg 73%
    10:00 +26°C° 0 mm 3 mps 754 mmHg 68%
    11:00 +27°C° 0 mm 3 mps 753 mmHg 62%
    12:00 +28°C° 0 mm 3 mps 753 mmHg 61%
    13:00 +29°C° 0 mm 3 mps 753 mmHg 59%
    14:00 +29°C° 0 mm 4 mps 752 mmHg 58%
    15:00 +30°C° 0 mm 4 mps 752 mmHg 59%
    16:00 +30°C° 0 mm 4 mps 751 mmHg 61%
    17:00 +30°C° 0 mm 4 mps 750 mmHg 62%
    18:00 +29°C° 0 mm 4 mps 750 mmHg 68%
    19:00 +27°C° 0 mm 4 mps 749 mmHg 74%
    20:00 +26°C° 0 mm 3 mps 749 mmHg 79%
    21:00 +25°C° 0 mm 4 mps 748 mmHg 79%
    22:00 +25°C° 0 mm 4 mps 748 mmHg 78%
    23:00 +25°C° 0 mm 4 mps 747 mmHg 77%

    Day after tomorrow, 27 June, Thursday

    Time Temperature Precipitation Wind Pressure Humidity
    00:00 +23°C° 0 mm 4 mps 747 mmHg 77%
    01:00 +23°C° 0 mm 4 mps 746 mmHg 77%
    02:00 +23°C° 0 mm 4 mps 746 mmHg 77%
    03:00 +22°C° 0.9 mm 5 mps 745 mmHg 82%
    04:00 +22°C° 0.9 mm 5 mps 745 mmHg 86%
    05:00 +22°C° 0.9 mm 5 mps 744 mmHg 91%
    06:00 +23°C° 0.3 mm 6 mps 744 mmHg 88%
    07:00 +23°C° 0.3 mm 7 mps 744 mmHg 85%
    08:00 +24°C° 0.3 mm 8 mps 744 mmHg 82%
    09:00 +24°C° 0.1 mm 8 mps 744 mmHg 80%
    10:00 +23°C° 0.1 mm 8 mps 744 mmHg 77%
    11:00 +23°C° 0.1 mm 8 mps 744 mmHg 75%
    12:00 +23°C° 0.1 mm 8 mps 744 mmHg 73%
    13:00 +23°C° 0.1 mm 8 mps 744 mmHg 71%
    14:00 +23°C° 0.1 mm 8 mps 744 mmHg 69%
    15:00 +22°C° 0.2 mm 8 mps 744 mmHg 71%
    16:00 +22°C° 0.2 mm 7 mps 744 mmHg 73%
    17:00 +21°C° 0.2 mm 7 mps 744 mmHg 75%
    18:00 +20°C° 0.3 mm 6 mps 744 mmHg 78%
    19:00 +20°C° 0.3 mm 6 mps 744 mmHg 81%
    20:00 +19°C° 0.3 mm 5 mps 744 mmHg 85%
    21:00 +17°C° 0 mm 5 mps 744 mmHg 85%
    22:00 +17°C° 0 mm 4 mps 745 mmHg 85%
    23:00 +15°C° 0 mm 4 mps 745 mmHg 86%

    28 June, Friday

    Time Temperature Precipitation Wind Pressure Humidity
    00:00 +14°C° 0 mm 5 mps 745 mmHg 85%
    01:00 +13°C° 0 mm 5 mps 745 mmHg 84%
    02:00 +12°C° 0 mm 5 mps 745 mmHg 83%
    03:00 +12°C° 0 mm 5 mps 745 mmHg 84%
    04:00 +10°C° 0 mm 5 mps 746 mmHg 85%
    05:00 +9°C° 0 mm 5 mps 746 mmHg 86%
    06:00 +11°C° 0 mm 6 mps 746 mmHg 78%
    07:00 +12°C° 0 mm 7 mps 746 mmHg 70%
    08:00 +15°C° 0 mm 8 mps 746 mmHg 62%
    09:00 +15°C° 0 mm 7 mps 746 mmHg 62%
    10:00 +16°C° 0 mm 7 mps 746 mmHg 62%
    11:00 +17°C° 0 mm 7 mps 746 mmHg 63%
    12:00 +18°C° 0.1 mm 7 mps 746 mmHg 60%
    13:00 +20°C° 0.1 mm 8 mps 746 mmHg 57%
    14:00 +20°C° 0.1 mm 8 mps 746 mmHg 55%
    15:00 +20°C° 0 mm 8 mps 746 mmHg 55%
    16:00 +20°C° 0 mm 8 mps 746 mmHg 56%
    17:00 +20°C° 0 mm 7 mps 746 mmHg 57%
    18:00 +19°C° 0 mm 6 mps 746 mmHg 61%
    19:00 +16°C° 0 mm 6 mps 746 mmHg 65%
    20:00 +15°C° 0 mm 5 mps 746 mmHg 70%
    21:00 +14°C° 0 mm 5 mps 746 mmHg 71%
    22:00 +13°C° 0 mm 5 mps 747 mmHg 72%
    23:00 +12°C° 0 mm 5 mps 747 mmHg 74%

    29 June, Saturday

    Time Temperature Precipitation Wind Pressure Humidity
    00:00 +12°C° 0 mm 5 mps 747 mmHg 76%
    01:00 +11°C° 0 mm 4 mps 747 mmHg 79%
    02:00 +10°C° 0 mm 4 mps 747 mmHg 82%
    03:00 +10°C° 0 mm 4 mps 748 mmHg 83%
    04:00 +8°C° 0 mm 4 mps 748 mmHg 83%
    05:00 +8°C° 0 mm 4 mps 749 mmHg 84%
    06:00 +9°C° 0 mm 5 mps 749 mmHg 79%
    07:00 +10°C° 0 mm 5 mps 749 mmHg 73%
    08:00 +12°C° 0 mm 5 mps 749 mmHg 68%
    09:00 +14°C° 0 mm 5 mps 749 mmHg 62%
    10:00 +15°C° 0 mm 6 mps 749 mmHg 56%
    11:00 +16°C° 0 mm 6 mps 749 mmHg 50%
    12:00 +17°C° 0 mm 6 mps 749 mmHg 51%
    13:00 +19°C° 0 mm 6 mps 749 mmHg 52%
    14:00 +20°C° 0 mm 6 mps 749 mmHg 53%
    15:00 +20°C° 0 mm 6 mps 749 mmHg 55%
    16:00 +20°C° 0 mm 5 mps 748 mmHg 57%
    17:00 +20°C° 0 mm 5 mps 748 mmHg 59%
    18:00 +19°C° 0 mm 4 mps 748 mmHg 63%
    19:00 +18°C° 0 mm 4 mps 748 mmHg 68%
    20:00 +17°C° 0 mm 4 mps 748 mmHg 72%
    21:00 +17°C° 0 mm 3 mps 748 mmHg 71%
    22:00 +17°C° 0 mm 2 mps 748 mmHg 70%
    23:00 +18°C° 0 mm 1 mps 748 mmHg 69%

    30 June, Sunday

    Time Temperature Precipitation Wind Pressure Humidity
    00:00 +17°C° 0 mm 2 mps 748 mmHg 69%
    01:00 +17°C° 0 mm 3 mps 747 mmHg 69%
    02:00 +17°C° 0 mm 3 mps 747 mmHg 69%
    03:00 +15°C° 0 mm 4 mps 747 mmHg 72%
    04:00 +15°C° 0 mm 4 mps 747 mmHg 76%
    05:00 +15°C° 0 mm 4 mps 746 mmHg 80%
    06:00 +17°C° 0 mm 4 mps 746 mmHg 77%
    07:00 +18°C° 0 mm 4 mps 747 mmHg 74%
    08:00 +19°C° 0 mm 4 mps 747 mmHg 71%
    09:00 +21°C° 0 mm 4 mps 747 mmHg 67%
    10:00 +22°C° 0 mm 4 mps 747 mmHg 64%
    11:00 +25°C° 0 mm 4 mps 747 mmHg 60%
    12:00 +26°C° 0 mm 4 mps 747 mmHg 59%
    13:00 +27°C° 0 mm 4 mps 747 mmHg 57%
    14:00 +27°C° 0 mm 4 mps 747 mmHg 55%
    15:00 +28°C° 0 mm 4 mps 746 mmHg 56%
    16:00 +28°C° 0 mm 3 mps 746 mmHg 57%
    17:00 +28°C° 0 mm 3 mps 746 mmHg 58%
    18:00 +26°C° 0 mm 3 mps 746 mmHg 64%
    19:00 +25°C° 0 mm 2 mps 745 mmHg 70%
    20:00 +24°C° 0 mm 2 mps 745 mmHg 76%
    21:00 +22°C° 0 mm 3 mps 745 mmHg 77%
    22:00 +21°C° 0 mm 3 mps 745 mmHg 78%
    23:00 +20°C° 0 mm 4 mps 745 mmHg 80%
    Show more